Regional Weather Roundup
Issued by NWS

Home | Current Version | Previous Version | Graphics & Text | Print | Product List | Glossary On
Versions: 1 2 3 4 5 6 7 8 9 10 11 12 13 14 15 16 17 18 19 20 21 22 23 24 25 26 27 28 29 30 31 32 33 34 35 36 37 38 39 40 41 42 43 44 45 46 47 48 49 50
364
ASUS44 KJAN 300503
RWRMS

MISSISSIPPI HOURLY WEATHER ROUNDUP
NATIONAL WEATHER SERVICE JACKSON MS
1200 AM CDT THU OCT 30 2014

NOTE: "FAIR: INDICATES FEW OR NO CLOUDS BELOW 12,000 FEET WITH NO
SIGNIFICANT WEATHER AND/OR OBSTRUCTIONS TO VISIBILITY.

MSZ001>002-007>008-010>013-018>021-025>028-034>036-300600-
NORTHWEST MISSISSIPPI

CITY           SKY/WX    TMP DP  RH WIND       PRES   REMARKS
CLARKSDALE     FAIR      52  50  93 CALM      30.16S
CLEVELAND      FAIR      51  49  95 CALM      30.14F
GREENWOOD      CLEAR     47  45  93 CALM      30.15F
GREENVILLE     CLEAR     50  46  86 CALM      30.14F
GRENADA        FAIR      43  43 100 CALM      30.16
OLIVE BRANCH   CLEAR     46  46 100 CALM      30.15S
OXFORD         FAIR      45  43  93 CALM      30.16S
TUNICA         CLEAR     46  45  93 CALM      30.16S
$$

MSZ003>006-009-014>017-022>024-029>033-037>039-300600-
NORTHEAST MISSISSIPPI

CITY           SKY/WX    TMP DP  RH WIND       PRES   REMARKS
COLUMBUS AFB   CLEAR     44  44  98 N2        30.14S
CORINTH        FAIR      43  41  93 CALM      30.14S
GOLDN TRIANGLE CLEAR    N/A N/A N/A CALM      30.12S
STARKVILLE     FAIR      43  43 100 CALM      30.14S
TUPELO         CLEAR     49  44  83 CALM      30.14S
$$

MSZ040-058-300600-
CENTRAL MISSISSIPPI

CITY           SKY/WX    TMP DP  RH WIND       PRES   REMARKS
JACKSON INTL   CLEAR     49  46  90 CALM      30.13F
JACKSON HAWKNS CLEAR     57  43  59 N6        30.13F
MERIDIAN KEY   CLEAR     48  44  86 CALM      30.12S
MERIDIAN NAS   CLEAR     49  45  86 NW5       30.12F
RAYMOND        FAIR      46  41  81 CALM      30.14S
VICKSBURG      CLEAR     51  45  79 N5        30.14S
$$

MSZ059>079-300600-
SOUTH MISSISSIPPI

CITY           SKY/WX    TMP DP  RH WIND       PRES   REMARKS
BROOKHAVEN     FAIR      52  48  87 CALM      30.14S
COLUMBIA         N/A     50  50 100 MISG      30.10S
HATTIESBURG    CLEAR     58  50  75 CALM      30.11S
MCCOMB         CLEAR     59  47  64 N5        30.11S
NATCHEZ        CLEAR     50  46  87 N3        30.14S
PINE BELT      CLEAR     54  46  76 N7        30.12S
$$

MSZ080>082-300600-
COASTAL MISSISSIPPI

CITY           SKY/WX    TMP DP  RH WIND       PRES   REMARKS
BILOXI         CLEAR     65  59  80 NE12      30.06S
PASCAGOULA     PTCLDY    65  57  75 N10       30.06F
GULFPORT       CLEAR     65  57  75 N10       30.06S
$$



USA.gov is the U.S. government's official web portal to all federal, state and local government web resources and services.